N3368K EGGD-EDDK

Flight info

Callsign N3368K
Flight time 1h 10m
Altitude 39000
Route YORQI DCT NUCHU L607 KONAN UL607 SPI/N0385F230 T857 DENOV T861 ERUKI ERUKI1G
Aircraft C25C/L-SDFGRWY/S

Departure

Time 2026-04-30 13:40
Airport Bristol Airport (EGGD)

Arrival

Time 2026-04-30 14:51
Airport Cologne Bonn Airport (EDDK)
Time Latitude Longitude Altitude Speed Heading
2026-04-30 13:24 51.38499 -2.72179 608 ft 0 kts 356°
2026-04-30 13:33 51.38495 -2.72179 616 ft 2 kts 357°
2026-04-30 13:33 51.38463 -2.72176 608 ft 2 kts 356°
2026-04-30 13:34 51.38446 -2.72174 608 ft 2 kts 355°
2026-04-30 13:34 51.38426 -2.72165 608 ft 0 kts 291°
2026-04-30 13:37 51.38423 -2.72280 615 ft 13 kts 263°
2026-04-30 13:38 51.38406 -2.72655 608 ft 18 kts 266°
2026-04-30 13:38 51.38398 -2.72850 609 ft 18 kts 267°
2026-04-30 13:38 51.38386 -2.73171 609 ft 0 kts 266°
2026-04-30 13:39 51.38365 -2.73293 616 ft 19 kts 233°
2026-04-30 13:39 51.38215 -2.73271 610 ft 0 kts 86°
2026-04-30 13:40 51.38221 -2.73075 607 ft 61 kts 86°
2026-04-30 13:40 51.38269 -2.71840 741 ft 154 kts 86°
2026-04-30 13:40 51.38368 -2.69815 1549 ft 208 kts 88°
2026-04-30 13:41 51.38501 -2.67396 2888 ft 219 kts 90°
2026-04-30 13:41 51.38556 -2.64922 4154 ft 226 kts 93°
2026-04-30 13:41 51.38617 -2.62341 5300 ft 239 kts 93°
2026-04-30 13:41 51.38661 -2.59632 6449 ft 248 kts 92°
2026-04-30 13:42 51.38758 -2.56868 7556 ft 256 kts 86°
2026-04-30 13:42 51.39527 -2.54223 8719 ft 271 kts 60°
2026-04-30 13:42 51.42849 -2.51054 10900 ft 293 kts 25°
2026-04-30 13:43 51.44668 -2.49596 11912 ft 295 kts 32°
2026-04-30 13:43 51.46567 -2.48220 12921 ft 301 kts 30°
2026-04-30 13:43 51.48402 -2.46598 13904 ft 302 kts 39°
2026-04-30 13:43 51.50111 -2.44633 14757 ft 301 kts 50°
2026-04-30 13:44 51.51269 -2.41940 15615 ft 292 kts 70°
2026-04-30 13:44 51.51819 -2.38871 16424 ft 285 kts 91°
2026-04-30 13:44 51.51733 -2.35698 17284 ft 284 kts 101°
2026-04-30 13:44 51.51521 -2.32525 18174 ft 288 kts 102°
2026-04-30 13:45 51.51047 -2.26045 19818 ft 295 kts 102°
2026-04-30 13:45 51.50822 -2.22759 20677 ft 298 kts 102°
2026-04-30 13:45 51.50599 -2.19436 21531 ft 301 kts 102°
2026-04-30 13:46 51.50360 -2.16084 22400 ft 304 kts 102°
2026-04-30 13:46 51.50130 -2.12735 23272 ft 307 kts 102°
2026-04-30 13:46 51.49887 -2.09309 24089 ft 311 kts 102°
2026-04-30 13:46 51.49645 -2.05830 24784 ft 315 kts 102°
2026-04-30 13:47 51.49391 -2.02268 25456 ft 320 kts 101°
2026-04-30 13:47 51.49143 -1.98744 26107 ft 324 kts 102°
2026-04-30 13:47 51.48882 -1.95079 26753 ft 328 kts 101°
2026-04-30 13:47 51.48623 -1.91463 27348 ft 332 kts 102°
2026-04-30 13:48 51.48356 -1.87731 28067 ft 333 kts 101°
2026-04-30 13:48 51.48089 -1.84056 28682 ft 337 kts 102°
2026-04-30 13:48 51.47823 -1.80342 29435 ft 336 kts 102°
2026-04-30 13:48 51.47551 -1.76636 30237 ft 334 kts 102°
2026-04-30 13:49 51.47283 -1.72938 30844 ft 334 kts 102°
2026-04-30 13:49 51.47008 -1.69240 31422 ft 333 kts 102°
2026-04-30 13:49 51.46613 -1.65591 31983 ft 330 kts 108°
2026-04-30 13:49 51.46107 -1.62005 32528 ft 330 kts 106°
2026-04-30 13:50 51.45636 -1.58399 33067 ft 330 kts 107°
2026-04-30 13:50 51.44659 -1.51238 34101 ft 329 kts 107°
2026-04-30 13:50 51.44164 -1.47638 34530 ft 329 kts 107°
2026-04-30 13:51 51.43672 -1.44051 34916 ft 331 kts 107°
2026-04-30 13:51 51.43178 -1.40449 35295 ft 331 kts 106°
2026-04-30 13:51 51.42679 -1.36837 35662 ft 332 kts 106°
2026-04-30 13:51 51.42175 -1.33201 36037 ft 334 kts 106°
2026-04-30 13:52 51.41679 -1.29613 36399 ft 335 kts 106°
2026-04-30 13:52 51.41170 -1.25969 36767 ft 336 kts 106°
2026-04-30 13:52 51.40663 -1.22312 37144 ft 337 kts 106°
2026-04-30 13:52 51.40148 -1.18641 37530 ft 338 kts 106°
2026-04-30 13:53 51.39661 -1.14944 37913 ft 340 kts 102°
2026-04-30 13:53 51.39454 -1.11152 38293 ft 343 kts 97°
2026-04-30 13:53 51.39254 -1.07345 38691 ft 343 kts 99°
2026-04-30 13:53 51.39047 -1.03532 39011 ft 345 kts 97°
2026-04-30 13:54 51.38853 -0.99673 39123 ft 352 kts 98°
2026-04-30 13:54 51.38653 -0.95710 39165 ft 362 kts 98°
2026-04-30 13:54 51.38219 -0.87471 39202 ft 380 kts 98°
2026-04-30 13:55 51.37766 -0.78869 39205 ft 395 kts 97°
2026-04-30 13:55 51.37289 -0.69980 39216 ft 407 kts 98°
2026-04-30 13:56 51.36793 -0.60846 39217 ft 417 kts 97°
2026-04-30 13:56 51.36278 -0.51527 39218 ft 424 kts 97°
2026-04-30 13:57 51.35748 -0.42059 39221 ft 429 kts 97°
2026-04-30 13:57 51.35204 -0.32491 39218 ft 434 kts 97°
2026-04-30 13:58 51.34366 -0.18000 39217 ft 438 kts 98°
2026-04-30 13:59 51.33799 -0.08374 39208 ft 432 kts 98°
2026-04-30 13:59 51.33226 0.01163 39210 ft 429 kts 98°
2026-04-30 14:00 51.32419 0.10491 39220 ft 425 kts 101°
2026-04-30 14:00 51.31118 0.24481 39242 ft 423 kts 101°
2026-04-30 14:01 51.30230 0.33746 39250 ft 422 kts 101°
2026-04-30 14:01 51.29344 0.42990 39254 ft 420 kts 101°
2026-04-30 14:02 51.28448 0.52220 39255 ft 419 kts 100°
2026-04-30 14:02 51.27552 0.61389 39251 ft 417 kts 101°
2026-04-30 14:03 51.26649 0.70533 39243 ft 416 kts 100°
2026-04-30 14:03 51.25743 0.79655 39237 ft 415 kts 101°
2026-04-30 14:04 51.24830 0.88747 39224 ft 414 kts 101°
2026-04-30 14:04 51.23914 0.97819 39217 ft 413 kts 101°
2026-04-30 14:05 51.22994 1.06860 39219 ft 412 kts 101°
2026-04-30 14:05 51.22076 1.15793 39222 ft 411 kts 100°
2026-04-30 14:06 51.20676 1.29295 39222 ft 409 kts 101°
2026-04-30 14:07 51.19274 1.42662 39223 ft 408 kts 100°
2026-04-30 14:08 51.17855 1.56028 39225 ft 407 kts 101°
2026-04-30 14:08 51.16425 1.69356 39222 ft 406 kts 101°
2026-04-30 14:09 51.15463 1.78247 39225 ft 406 kts 101°
2026-04-30 14:10 51.14013 1.91511 39212 ft 405 kts 102°
2026-04-30 14:10 51.13060 2.00386 39212 ft 407 kts 98°
2026-04-30 14:11 51.12579 2.09374 39216 ft 408 kts 95°
2026-04-30 14:11 51.12101 2.18387 39218 ft 408 kts 97°
2026-04-30 14:12 51.11604 2.27399 39222 ft 409 kts 96°
2026-04-30 14:12 51.11113 2.36364 39228 ft 409 kts 97°
2026-04-30 14:13 51.10605 2.45379 39230 ft 409 kts 96°
2026-04-30 14:13 51.10095 2.54403 39238 ft 409 kts 96°
2026-04-30 14:14 51.09556 2.63395 39235 ft 408 kts 99°
2026-04-30 14:14 51.08210 2.72151 39238 ft 407 kts 108°
2026-04-30 14:15 51.06649 2.80805 39242 ft 407 kts 107°
2026-04-30 14:15 51.05076 2.89433 39242 ft 406 kts 107°
2026-04-30 14:16 51.03505 2.98047 39243 ft 405 kts 107°
2026-04-30 14:16 51.01926 3.06640 39244 ft 405 kts 108°
2026-04-30 14:17 51.00348 3.15205 39244 ft 404 kts 108°
2026-04-30 14:17 50.98760 3.23770 39243 ft 404 kts 107°
2026-04-30 14:18 50.97178 3.32271 39240 ft 403 kts 107°
2026-04-30 14:18 50.94776 3.45095 39243 ft 402 kts 107°
2026-04-30 14:19 50.92391 3.57749 39245 ft 401 kts 107°
2026-04-30 14:20 50.90787 3.66207 39247 ft 400 kts 107°
2026-04-30 14:20 50.88347 3.78841 39253 ft 399 kts 107°
2026-04-30 14:21 50.86996 3.85827 39250 ft 398 kts 107°
2026-04-30 14:22 50.84555 3.98371 39263 ft 397 kts 107°
2026-04-30 14:22 50.82108 4.10871 39270 ft 396 kts 107°
2026-04-30 14:23 50.78824 4.27494 39287 ft 396 kts 107°
2026-04-30 14:24 50.76350 4.39949 39293 ft 396 kts 108°
2026-04-30 14:25 50.73024 4.56539 39289 ft 396 kts 108°
2026-04-30 14:26 50.71370 4.64853 39122 ft 401 kts 107°
2026-04-30 14:26 50.70561 4.69128 38551 ft 413 kts 106°
2026-04-30 14:26 50.68859 4.77916 37447 ft 415 kts 107°
2026-04-30 14:27 50.68014 4.82230 36895 ft 406 kts 107°
2026-04-30 14:27 50.67189 4.86452 36368 ft 399 kts 107°
2026-04-30 14:27 50.66394 4.90541 35857 ft 392 kts 107°
2026-04-30 14:28 50.64750 4.98622 34838 ft 382 kts 108°
2026-04-30 14:28 50.63929 5.02576 34342 ft 378 kts 108°
2026-04-30 14:28 50.63124 5.06501 33817 ft 374 kts 107°
2026-04-30 14:28 50.62329 5.10395 33312 ft 373 kts 108°
2026-04-30 14:29 50.60703 5.18246 32321 ft 382 kts 107°
2026-04-30 14:29 50.59033 5.26306 31304 ft 393 kts 107°
2026-04-30 14:30 50.56440 5.38748 29678 ft 403 kts 107°
2026-04-30 14:31 50.54679 5.47153 28553 ft 408 kts 107°
2026-04-30 14:31 50.53226 5.55745 27777 ft 402 kts 99°
2026-04-30 14:31 50.52930 5.60120 27265 ft 404 kts 93°
2026-04-30 14:32 50.53220 5.68960 26194 ft 408 kts 82°
2026-04-30 14:32 50.53830 5.73329 25653 ft 410 kts 76°
2026-04-30 14:32 50.54703 5.77612 25120 ft 412 kts 72°
2026-04-30 14:33 50.55592 5.81831 24589 ft 408 kts 73°
2026-04-30 14:33 50.57337 5.90237 23484 ft 396 kts 72°
2026-04-30 14:33 50.58187 5.94272 22966 ft 390 kts 72°
2026-04-30 14:34 50.59036 5.98354 22464 ft 386 kts 73°
2026-04-30 14:34 50.59871 6.02358 21957 ft 382 kts 73°
2026-04-30 14:34 50.60686 6.06302 21460 ft 379 kts 73°
2026-04-30 14:34 50.61504 6.10240 20949 ft 376 kts 72°
2026-04-30 14:35 50.63108 6.18017 19967 ft 371 kts 73°
2026-04-30 14:35 50.63532 6.21986 19475 ft 367 kts 89°
2026-04-30 14:35 50.63428 6.25981 19000 ft 365 kts 93°
2026-04-30 14:36 50.63249 6.29955 18506 ft 363 kts 95°
2026-04-30 14:36 50.63013 6.33877 18326 ft 353 kts 95°
2026-04-30 14:36 50.62820 6.37677 18052 ft 347 kts 94°
2026-04-30 14:36 50.62631 6.41498 17373 ft 353 kts 94°
2026-04-30 14:37 50.62429 6.45373 16713 ft 356 kts 95°
2026-04-30 14:37 50.62229 6.49244 16160 ft 352 kts 94°
2026-04-30 14:37 50.62028 6.53054 15704 ft 345 kts 94°
2026-04-30 14:37 50.61829 6.56740 15254 ft 340 kts 94°
2026-04-30 14:38 50.61635 6.60425 14782 ft 337 kts 94°
2026-04-30 14:38 50.61438 6.64094 14280 ft 335 kts 95°
2026-04-30 14:38 50.61241 6.67749 13796 ft 333 kts 94°
2026-04-30 14:38 50.61278 6.71349 13349 ft 329 kts 80°
2026-04-30 14:39 50.61925 6.74785 12933 ft 327 kts 69°
2026-04-30 14:39 50.63133 6.77822 12499 ft 329 kts 54°
2026-04-30 14:39 50.64784 6.80311 12066 ft 331 kts 40°
2026-04-30 14:40 50.68179 6.84654 11232 ft 289 kts 43°
2026-04-30 14:40 50.69690 6.86576 10865 ft 270 kts 44°
2026-04-30 14:40 50.71103 6.88400 10520 ft 256 kts 44°
2026-04-30 14:40 50.72463 6.90136 10189 ft 249 kts 44°
2026-04-30 14:41 50.73762 6.91905 9799 ft 243 kts 51°
2026-04-30 14:41 50.74873 6.93882 9370 ft 241 kts 53°
2026-04-30 14:41 50.76012 6.95817 9028 ft 238 kts 51°
2026-04-30 14:41 50.77121 6.97711 8727 ft 234 kts 51°
2026-04-30 14:42 50.78466 6.99185 8424 ft 240 kts 30°
2026-04-30 14:42 50.80085 6.99879 8111 ft 247 kts 10°
2026-04-30 14:42 50.81818 6.99567 7794 ft 255 kts 349°
2026-04-30 14:42 50.83402 6.98219 7455 ft 266 kts 324°
2026-04-30 14:43 50.84794 6.96247 7116 ft 270 kts 321°
2026-04-30 14:43 50.86169 6.94220 6761 ft 270 kts 319°
2026-04-30 14:43 50.87536 6.92189 6383 ft 269 kts 320°
2026-04-30 14:43 50.88915 6.90183 6024 ft 269 kts 319°
2026-04-30 14:44 50.90295 6.88171 5639 ft 269 kts 320°
2026-04-30 14:44 50.91687 6.86175 5260 ft 270 kts 323°
2026-04-30 14:44 50.93330 6.84903 4883 ft 260 kts 357°
2026-04-30 14:44 50.95037 6.85339 4317 ft 246 kts 34°
2026-04-30 14:45 50.96117 6.87217 3922 ft 223 kts 71°
2026-04-30 14:45 50.96260 6.89508 3653 ft 206 kts 97°
2026-04-30 14:45 50.96070 6.91731 3412 ft 196 kts 99°
2026-04-30 14:45 50.95870 6.93792 3171 ft 188 kts 99°
2026-04-30 14:46 50.95730 6.95832 2922 ft 183 kts 96°
2026-04-30 14:46 50.95628 6.97755 2744 ft 159 kts 95°
2026-04-30 14:46 50.95552 6.99337 2543 ft 134 kts 96°
2026-04-30 14:46 50.95471 7.00777 2355 ft 127 kts 96°
2026-04-30 14:47 50.95240 7.02056 2199 ft 117 kts 118°
2026-04-30 14:47 50.94783 7.03106 2048 ft 116 kts 130°
2026-04-30 14:47 50.94141 7.03979 1741 ft 129 kts 133°
2026-04-30 14:47 50.93516 7.04956 1550 ft 124 kts 134°
2026-04-30 14:48 50.92884 7.05849 1382 ft 121 kts 133°
2026-04-30 14:48 50.92266 7.06780 1226 ft 125 kts 137°
2026-04-30 14:48 50.91613 7.07692 1032 ft 123 kts 131°
2026-04-30 14:48 50.91014 7.08602 887 ft 114 kts 134°
2026-04-30 14:49 50.90474 7.09393 749 ft 101 kts 131°
2026-04-30 14:49 50.89984 7.10118 602 ft 94 kts 140°
2026-04-30 14:49 50.89434 7.10788 492 ft 102 kts 140°
2026-04-30 14:49 50.88944 7.11524 564 ft 98 kts 118°
2026-04-30 14:50 50.87823 7.13216 263 ft 102 kts 136°
2026-04-30 14:50 50.87390 7.13821 240 ft 62 kts 132°
2026-04-30 14:51 50.87084 7.14297 251 ft 24 kts 138°
2026-04-30 14:51 50.86958 7.14455 251 ft 22 kts 151°
2026-04-30 14:51 50.86887 7.14353 252 ft 9 kts 277°
2026-04-30 14:52 50.86900 7.14231 248 ft 15 kts 280°
2026-04-30 14:52 50.86867 7.14003 238 ft 8 kts 197°
2026-04-30 14:52 50.86823 7.13938 238 ft 10 kts 228°
2026-04-30 14:53 50.86797 7.13894 238 ft 0 kts 227°